Location: Caltech
(34.1382°N, 118.1253°W)
Time: 02:16:09
(UTC-07:00)

AO-7 - Visible Passes

Search period start: 06 May 2016 00:00
Search period end: 16 May 2016 00:00
Orbit: 1440 x 1459 km, 101.6° (Epoch: 05 May)

Date Brightness Start Highest point End Pass type
(mag) Time Alt. Az. Time Alt. Az. Time Alt. Az.
06 May ? 03:01:48 10° ENE 03:05:40 14° E 03:09:32 10° ESE visible
06 May ? 04:50:55 10° NNE 04:59:18 87° ESE 05:07:41 10° SSW visible
07 May ? 03:51:44 10° NE 03:59:13 36° E 04:06:41 10° SSE visible
08 May ? 02:55:54 10° ENE 02:58:36 12° E 03:01:19 10° ESE visible
08 May ? 04:43:58 10° NNE 04:52:21 79° ESE 05:00:43 10° SSW visible
09 May ? 03:44:58 10° NE 03:52:13 32° E 03:59:25 10° SSE visible
10 May ? 04:37:02 10° NNE 04:45:24 72° ESE 04:53:44 10° S visible
11 May ? 03:38:14 10° NE 03:45:12 29° E 03:52:07 10° SSE visible
12 May ? 04:30:08 10° NNE 04:38:26 65° ESE 04:46:43 10° S visible
13 May ? 03:31:33 10° NE 03:38:10 26° E 03:44:46 10° SSE visible
14 May ? 04:23:14 10° NNE 04:31:28 59° ESE 04:39:40 10° S visible
15 May ? 03:24:55 10° NE 03:31:09 23° E 03:37:21 10° SE visible
15 May ? 05:16:06 10° N 05:24:22 67° WNW 05:32:36 10° SSW visible
